GFSNIL_con_3kmhel_042.txt.gz
Helicity
271 240 239 288 342 317 319 358 372 419 455 405 346 111 182 181 151 202 260 201 177 206
266 259 279 335 333 380 411 447 502 472 484 291 202 135 158 176 191 249 292 161 178 215
250 252 335 371 339 393 407 420 511 491 400 270 217 235 262 362 290 210 157 167 197 196
211 246 301 309 328 370 400 495 510 449 294 220 318 458 306 255 280 163 168 183 198 171
271 318 312 301 341 434 513 547 393 287 450 401 447 362 302 179 152 154 182 207 204 165
281 302 330 361 403 447 456 464 434 398 404 463 316 427 266 128 145 186 240 209 195 179
331 398 411 368 403 493 463 469 384 585 450 499 378 126 139 185 198 245 187 202 224 215
406 438 450 454 552 591 595 613 621 776 541 239 159 188 187 146 161 151 189 227 240 240
431 455 498 609 679 726 591 777 515 240 173 171 187 105 65 102 128 166 226 240 254 249
429 491 548 609 631 664 577 533 155 161 143 147 139 107 74 73 140 191 225 255 256 256
463 540 570 605 616 477 332 125 103 97 128 125 110 78 86 101 147 181 197 227 242 255
436 490 517 529 468 193 85 125 96 109 113 117 112 94 97 137 170 181 179 201 225 247
417 458 260 120 100 131 128 112 115 111 116 113 116 106 114 150 215 206 194 194 204 176
179 138 113 104 123 116 105 105 112 122 117 129 145 147 125 138 229 218 215 230 226 212

GFSNIL_con_3kmhel_048.txt.gz
Helicity
100 141 131 120 156 198 236 261 243 270 257 233 272 367 402 329 264 163 158 163 189 165
131 111 109 107 208 268 235 259 249 227 283 319 274 356 382 378 288 214 187 285 194 113
113 94 85 130 183 229 231 243 238 266 281 298 364 399 425 346 367 229 313 229 97 108
71 82 84 143 127 152 177 234 269 225 273 367 438 489 528 557 315 243 189 102 90 95
85 92 97 109 127 195 219 186 190 267 420 406 535 532 577 595 412 167 143 73 95 106
139 148 158 180 200 182 208 165 256 325 263 331 517 516 411 369 183 133 106 113 84 113
172 176 187 184 173 160 168 185 223 280 315 425 389 464 241 202 166 152 115 109 115 120
221 206 191 179 195 191 193 225 237 303 340 306 397 172 164 175 178 153 129 126 96 89
177 188 196 201 202 214 233 253 241 229 224 161 163 138 132 142 153 133 105 106 82 89
173 169 166 170 179 224 258 246 188 141 149 106 106 131 125 127 108 103 88 93 108 106
127 148 174 208 226 217 189 169 148 119 90 96 106 118 113 118 107 113 94 100 110 122
138 143 150 142 144 141 137 115 65 81 99 90 89 128 107 111 119 128 118 127 131 140
129 132 154 144 128 104 79 101 99 100 102 117 97 99 107 130 154 163 169 153 160 193
198 184 134 100 95 106 106 105 124 124 121 111 116 130 167 171 203 202 212 219 221 230

GFSNIL_con_3kmhel_051.txt.gz
Helicity
30 45 72 93 183 154 163 226 240 244 245 204 235 255 325 389 425 292 311 307 442 377
2 50 98 117 146 130 246 324 314 244 225 226 258 364 474 423 360 382 406 455 337 231
76 96 103 113 142 212 224 202 196 198 245 266 367 470 408 473 373 503 441 491 302 166
127 95 125 129 148 200 141 135 188 208 236 345 327 423 500 403 449 485 482 360 135 107
178 149 132 147 181 163 152 224 273 334 270 265 543 634 408 436 490 415 352 102 153 107
282 238 253 259 272 271 279 276 280 302 352 444 434 390 348 390 390 231 185 108 106 114
241 227 226 246 262 277 273 277 283 274 301 297 262 253 281 248 162 149 123 148 144 143
208 200 204 208 224 248 254 233 217 221 218 201 187 160 130 152 173 177 163 168 144 109
210 238 253 257 248 225 222 209 201 197 163 158 157 164 146 172 162 149 140 110 107 97
219 243 247 238 229 239 250 252 213 180 158 171 169 137 116 123 125 118 111 109 124 123
240 231 206 225 229 212 176 179 188 168 136 116 103 91 96 133 121 119 111 110 115 130
189 194 195 205 202 214 213 173 132 109 84 85 109 105 123 135 133 142 135 131 137 146
195 211 250 241 208 147 106 128 130 132 117 139 103 154 192 178 181 174 187 183 169 176
234 225 208 161 119 143 156 141 139 121 127 122 137 179 257 250 208 246 223 202 197 209

GFSNIL_con_3kmhel_054.txt.gz
Helicity
258 81 85 -81 -27 189 220 295 311 331 243 293 315 285 224 326 413 499 432 380 354 425
210 112 212 -19 -41 46 163 240 332 339 389 357 294 304 318 432 506 512 436 448 390 353
208 81 91 -23 29 127 267 335 310 366 345 271 273 374 410 450 508 543 545 401 369 336
288 153 110 132 160 157 261 186 179 184 206 255 372 450 527 566 564 605 392 296 292 283
166 181 196 160 171 166 187 186 182 244 311 363 397 434 480 533 409 454 281 252 272 195
315 326 327 271 267 267 282 305 350 374 379 357 368 409 384 338 295 273 206 183 188 146
397 307 273 280 299 316 329 351 360 353 337 318 303 292 309 298 267 206 202 159 184 155
332 283 280 296 320 330 342 338 319 315 311 307 291 264 245 225 182 167 161 153 148 136
240 276 293 286 262 266 270 271 280 267 249 236 222 224 182 209 204 166 143 130 92 76
343 326 279 239 247 242 242 248 276 261 226 201 212 180 154 135 131 108 97 98 97 109
241 214 221 274 323 305 290 273 258 239 200 161 126 112 108 100 82 91 96 106 113 122
208 272 291 295 303 313 274 209 164 148 124 122 201 141 127 98 147 161 151 140 158 178
277 347 349 298 243 190 162 140 152 187 218 183 256 256 223 176 181 192 156 141 130 130
378 292 228 189 169 151 238 283 243 228 215 220 262 255 256 238 161 150 131 129 133 139

GFSNIL_con_3kmhel_057.txt.gz
Helicity
44 27 141 157 85 159 180 219 229 227 265 233 306 292 318 322 279 379 372 499 501 493
30 97 154 209 131 49 59 81 162 261 359 304 309 312 308 329 354 443 505 458 412 470
156 129 186 212 240 137 82 180 296 307 330 311 310 342 344 393 397 441 475 465 418 398
300 307 253 145 139 80 116 191 251 201 242 299 337 340 373 389 423 456 478 462 334 273
361 304 242 -71 119 195 183 177 160 168 231 282 324 340 360 381 389 342 327 257 197 184
252 197 208 225 283 297 250 245 250 257 281 309 329 343 330 333 322 236 187 197 204 204
332 315 358 357 327 290 280 304 327 344 379 374 354 328 313 269 254 246 228 239 200 192
455 423 362 336 310 327 347 354 368 387 399 395 367 325 286 267 257 254 235 176 133 116
409 420 380 359 342 348 356 343 356 382 370 332 306 282 263 280 274 208 174 139 121 114
430 424 373 342 339 326 325 352 357 333 315 326 293 241 256 217 180 156 125 117 131 132
419 410 385 405 334 340 325 306 295 281 255 257 219 190 174 164 151 151 170 189 198 183
369 408 375 327 311 290 294 264 227 202 234 219 203 205 185 179 191 197 197 166 158 163
362 362 328 305 293 263 214 198 229 291 330 341 333 289 275 242 196 207 175 152 150 164
353 329 313 297 240 214 288 343 369 412 329 340 312 281 259 212 172 143 131 136 122 115

GFSNIL_con_3kmhel_060.txt.gz
Helicity
-4 -29 -22 -5 -1 17 21 55 100 148 212 271 194 259 182 275 320 336 337 359 350 347
51 14 8 33 104 125 75 89 173 174 206 283 256 226 291 339 327 331 352 295 321 355
113 58 88 103 102 141 126 109 146 149 169 237 250 329 321 309 311 333 313 340 368 346
123 94 172 239 195 37 141 116 145 183 200 257 266 277 320 315 324 332 365 349 356 232
186 206 227 201 352 282 84 40 112 114 130 195 230 289 311 335 333 365 344 301 257 204
303 288 258 264 273 125 91 63 128 157 164 225 264 304 331 342 322 285 258 252 236 228
333 205 268 323 244 179 171 235 264 249 287 323 342 351 352 349 314 308 291 245 243 230
245 210 359 388 337 280 330 358 337 359 374 383 379 357 359 329 314 313 305 275 257 226
422 395 373 339 342 396 390 402 385 400 400 387 365 355 347 329 318 301 289 273 227 229
448 415 419 425 416 412 376 411 422 392 384 378 360 325 318 327 325 324 305 279 251 268
458 476 471 462 435 403 400 381 374 365 346 349 324 337 352 345 341 333 312 296 268 236
454 494 483 435 409 397 406 377 351 350 354 365 347 334 350 336 335 320 296 255 230 211
487 491 443 400 354 321 341 381 379 397 370 364 393 366 338 309 284 330 301 270 247 243
410 408 365 322 307 335 400 435 464 477 455 481 428 389 357 314 317 302 271 243 215 173

GFSNIL_con_3kmhel_063.txt.gz
Helicity
-8 -38 -68 -75 -68 -100 -86 -87 -20 30 67 84 133 186 273 225 85 114 194 228 308 313
12 -10 -18 -59 -82 -87 -78 -30 10 64 77 97 151 189 187 181 124 183 240 263 290 276
109 49 9 -8 -45 -41 -25 41 62 43 103 151 177 211 254 190 308 300 285 281 292 299
138 97 35 2 48 69 133 155 139 55 54 110 148 165 254 300 295 297 314 312 297 300
205 159 117 137 118 170 180 274 131 -20 46 131 218 319 277 266 266 344 328 319 310 308
333 286 72 240 -44 65 182 215 289 35 -84 75 166 218 202 220 269 296 310 314 323 267
305 392 272 162 99 97 204 316 165 125 144 170 211 191 243 292 308 327 348 340 315 325
384 243 226 244 200 264 215 232 245 278 277 258 256 255 305 335 348 385 373 360 356 364
300 243 272 274 314 311 293 303 300 306 328 361 336 329 375 413 421 413 387 385 441 479
373 370 347 373 356 335 321 365 361 350 384 381 372 374 390 418 415 412 444 458 436 412
401 397 376 362 331 390 385 388 387 388 390 424 375 409 449 492 500 513 476 440 411 370
393 386 389 386 386 418 444 429 415 417 420 429 433 453 460 464 457 458 452 413 375 333
337 357 395 436 456 428 413 458 473 491 449 453 448 406 402 404 418 437 404 375 336 313
419 401 383 443 472 485 527 569 549 567 520 497 460 462 421 403 388 393 391 370 333 296

GFSNIL_con_3kmhel_066.txt.gz
Helicity
7 -11 -22 -42 -91 -125 -138 -137 -72 -95 -48 14 89 93 140 177 195 159 81 78 126 97
23 -3 -26 -38 -70 -128 -122 -110 -104 -98 -77 6 68 85 109 143 192 160 90 120 126 145
104 68 22 -13 -34 -50 -53 -58 -65 -76 -26 27 45 67 113 154 161 161 150 211 204 225
215 181 141 89 45 34 32 20 4 -9 -46 -10 30 67 105 155 202 214 255 249 251 265
339 308 256 186 147 112 68 84 90 133 79 84 157 72 120 152 244 180 224 260 284 288
354 316 258 225 241 181 153 119 148 219 206 271 259 54 126 122 207 186 194 249 296 323
490 465 330 140 110 91 175 -85 19 165 131 197 180 106 173 184 213 225 255 274 316 343
460 437 336 143 117 125 120 -73 18 120 172 225 134 139 188 210 268 281 293 335 373 430
341 329 283 187 153 151 96 88 142 176 201 225 211 189 258 307 327 318 395 478 566 540
258 262 233 189 188 240 255 311 293 332 285 256 254 270 317 384 400 447 498 527 519 514
251 249 308 342 346 358 365 344 357 309 296 323 300 338 415 503 514 544 526 481 449 441
321 400 419 364 341 353 365 335 306 326 351 391 428 463 507 544 539 538 532 508 485 459
359 378 349 360 377 360 323 377 413 476 456 504 504 485 498 463 451 471 476 479 470 459
353 355 352 359 338 391 436 497 560 635 638 621 541 485 399 399 400 393 428 449 447 406

GFSNIL_con_3kmhel_069.txt.gz
Helicity
23 -16 -40 -22 2 33 78 44 70 -43 20 27 25 -2 -5 44 62 69 111 100 105 129
31 -1 -34 -53 -41 -50 -36 -26 1 -23 -51 -49 -98 -89 -55 20 53 65 76 95 142 125
114 79 35 -10 -28 -42 -87 -106 -127 -137 -71 -40 -24 -29 -15 21 44 41 77 136 200 131
183 174 148 98 49 45 44 17 1 -20 -29 -39 -20 9 23 9 18 38 80 177 212 163
191 220 230 182 176 160 166 166 153 129 96 82 75 126 114 70 61 103 100 187 167 132
254 215 200 178 132 99 90 108 82 126 115 122 156 204 204 150 149 232 158 199 210 180
322 332 259 185 165 152 132 170 156 196 90 98 148 185 220 189 250 177 167 222 195 239
235 268 248 211 166 130 110 147 178 221 104 -91 39 196 234 234 170 205 218 236 254 267
148 184 193 203 197 156 116 96 123 157 63 84 170 233 240 257 227 240 308 369 399 395
129 140 125 109 123 135 114 102 121 139 147 170 183 190 208 253 251 313 344 447 528 543
150 130 125 134 126 105 87 113 159 171 174 217 246 230 292 341 374 432 462 508 549 561
172 141 158 168 213 297 264 258 263 265 271 280 251 297 394 464 493 562 587 612 560 470
179 164 256 325 328 296 298 294 292 311 275 269 334 370 429 479 540 633 657 614 572 461
325 338 341 349 356 358 366 380 401 439 415 401 416 426 453 470 525 583 546 484 407 388

GFSNIL_con_3kmhel_072.txt.gz
Helicity
82 83 62 87 72 82 164 167 159 54 69 34 20 11 -52 -53 42 48 28 18 50 64
78 79 92 105 58 58 75 84 83 89 45 10 26 5 1 -35 -18 8 15 26 46 69
80 93 80 77 108 110 79 77 98 106 85 52 34 6 -53 -77 -44 -1 55 60 77 69
93 84 94 122 128 125 109 129 150 139 113 80 40 15 -12 -12 -7 -19 54 90 123 124
107 105 105 105 104 136 135 114 128 104 89 79 95 133 111 82 93 105 83 113 144 153
134 128 137 111 121 109 99 91 84 62 56 47 58 61 129 165 112 99 146 154 133 126
186 180 142 119 118 134 125 119 125 123 117 98 93 145 187 274 243 202 250 247 267 241
142 137 120 102 101 107 115 125 124 115 112 127 185 287 260 237 108 224 265 275 266 234
80 81 92 107 121 111 122 121 124 125 102 134 196 257 223 114 88 202 273 284 288 274
68 54 43 52 88 112 124 152 160 132 76 74 89 178 148 116 133 228 267 329 397 435
106 96 85 77 77 96 110 115 151 150 121 124 173 157 99 140 226 355 344 389 431 497
138 144 128 114 115 151 150 173 179 197 224 219 255 208 250 375 428 474 482 476 478 531
177 160 154 140 210 327 284 295 335 342 296 265 261 258 362 445 449 484 525 558 597 629
164 158 248 378 315 367 375 402 384 376 362 335 319 404 442 414 428 502 605 681 732 712

GFSNIL_con_3kmhel_075.txt.gz
Helicity
95 111 161 185 212 172 177 167 279 201 211 214 236 27 -31 93 57 43 14 -57 -19 51
64 99 111 111 149 133 137 159 215 277 260 143 262 74 75 67 120 85 43 -54 7 58
61 59 77 69 90 120 138 166 224 223 219 207 227 88 87 35 22 16 35 21 63 95
84 68 67 90 93 115 124 149 184 219 229 233 210 96 27 21 25 28 52 68 91 103
86 98 98 88 110 125 130 145 148 203 196 192 170 133 76 91 127 105 79 92 89 98
140 147 154 153 131 126 136 146 148 130 156 159 161 136 114 104 96 109 124 148 158 159
184 206 204 193 168 158 157 166 165 170 153 163 164 137 133 133 136 146 145 152 198 224
221 221 197 209 210 196 184 200 189 193 186 174 175 183 171 179 194 217 211 242 309 307
136 149 185 200 221 216 214 222 254 238 247 249 235 212 219 229 303 366 344 315 262 198
109 122 146 157 168 188 212 226 230 256 284 290 258 288 309 276 274 236 230 238 188 225
139 129 128 128 130 137 143 170 209 221 237 234 236 281 307 241 181 164 257 263 304 362
153 174 189 170 167 178 171 174 171 162 168 178 197 287 276 265 345 431 505 514 478 447
126 157 213 214 192 230 234 234 313 415 393 379 336 316 292 383 462 483 515 531 498 460
133 172 168 184 241 297 486 605 563 553 470 410 326 384 410 416 460 493 545 556 586 627

GFSNIL_con_3kmhel_078.txt.gz
Helicity
131 118 169 228 173 168 170 169 243 256 237 218 119 138 167 175 194 206 236 206 154 145
116 158 240 220 217 223 193 131 171 257 163 152 49 51 185 205 158 158 129 111 94 103
101 115 148 200 222 224 204 216 173 204 148 102 50 157 200 184 112 139 31 125 120 126
122 119 121 108 176 195 201 215 212 276 254 223 182 134 178 226 207 159 108 114 146 73
152 149 145 149 161 173 168 178 184 199 229 237 257 230 238 258 234 203 145 132 125 134
187 192 177 170 182 173 187 189 193 193 249 257 238 276 247 256 268 212 143 121 109 125
203 227 202 181 197 226 222 228 223 232 228 222 214 231 235 220 201 189 165 162 189 171
206 190 199 217 249 254 268 270 239 257 253 265 265 272 265 253 238 219 207 219 221 250
218 217 207 228 269 282 290 281 298 320 325 317 310 325 321 309 284 258 246 245 266 316
227 224 201 228 247 258 307 307 299 306 325 329 327 337 349 332 309 275 268 298 306 353
244 229 200 217 215 222 260 289 303 289 282 273 279 312 349 348 313 280 341 366 298 268
236 199 184 194 213 226 253 258 253 235 214 201 205 226 278 355 330 392 529 491 457 445
180 218 206 225 249 219 242 238 245 226 280 264 256 318 291 351 539 602 599 561 516 464
267 189 200 190 223 247 228 322 469 530 561 549 495 484 403 464 510 566 632 618 615 568

GFSNIL_con_3kmhel_084.txt.gz
Helicity
183 171 148 155 123 100 83 19 21 -0 48 66 105 160 190 175 161 171 182 188 195 201
166 164 167 153 138 111 109 63 70 74 56 57 70 75 127 166 197 225 216 193 210 196
153 157 161 175 194 169 103 96 103 78 68 55 69 114 166 145 76 195 217 189 175 147
163 160 164 172 174 174 155 124 132 126 104 93 91 103 120 141 173 189 183 196 188 105
167 140 168 175 146 147 164 161 163 146 152 142 138 128 148 168 192 226 208 240 266 246
183 165 142 149 156 139 136 149 159 171 172 174 166 193 200 225 228 226 196 211 217 232
205 195 182 200 230 214 197 188 193 187 195 194 192 207 216 205 210 224 238 240 273 284
307 300 244 186 214 261 288 262 240 247 232 222 235 253 250 246 229 221 221 226 240 254
115 216 292 328 344 278 238 254 292 299 307 301 299 281 318 308 286 263 228 214 209 221
230 128 99 203 250 307 346 327 278 276 285 299 313 323 345 342 314 282 271 247 226 199
174 127 159 202 120 221 290 364 399 372 358 314 299 335 360 369 298 259 235 244 233 227
205 215 169 127 121 147 143 265 340 373 359 359 349 363 362 391 341 319 287 277 257 254
114 136 166 199 147 91 114 121 229 289 353 361 308 287 357 398 363 347 357 339 438 457
50 59 74 104 119 103 83 118 150 219 497 594 553 432 474 296 345 350 375 421 513 515

GFSNIL_con_3kmhel_087.txt.gz
Helicity
96 81 66 94 91 83 59 16 43 6 -26 85 138 128 108 128 195 86 61 9 184 242
102 90 59 59 89 89 76 31 32 52 60 92 143 112 119 121 162 131 65 34 81 217
121 112 85 45 41 58 64 89 65 29 25 59 123 134 129 91 55 91 113 169 160 164
130 124 110 83 49 38 22 58 102 90 73 82 68 75 116 116 143 170 141 111 156 220
130 125 131 136 111 93 79 57 60 78 102 90 99 123 114 111 146 180 132 150 155 147
160 165 155 131 158 166 131 100 92 96 95 93 114 138 168 155 148 183 189 189 202 222
156 183 166 143 131 127 138 146 140 131 131 136 133 129 128 158 160 156 184 209 211 212
114 136 190 206 171 169 149 165 186 182 167 179 186 203 192 192 194 183 180 202 226 259
86 87 100 140 175 187 202 219 223 224 239 250 264 232 273 288 246 228 226 209 209 226
231 229 271 219 111 132 161 193 216 236 262 274 283 293 333 352 319 296 279 241 211 204
223 198 185 179 177 200 199 110 188 218 263 280 286 305 373 406 354 312 302 308 287 253
242 210 196 195 179 164 149 138 123 116 180 255 265 292 325 407 383 363 321 304 292 302
176 175 180 157 139 129 126 129 128 119 176 347 393 553 558 314 306 295 317 318 375 304
79 86 109 114 108 103 91 91 100 110 158 246 344 340 378 398 350 309 295 359 290 471

GFSNIL_con_3kmhel_090.txt.gz
Helicity
118 116 91 90 59 49 75 107 202 153 145 187 216 103 137 95 112 210 168 129 113 155
57 83 51 69 41 27 66 120 107 96 133 132 93 53 148 171 110 210 141 121 123 151
29 77 58 63 63 64 56 60 86 65 70 57 45 89 142 165 73 104 123 108 201 178
55 63 80 65 67 55 50 79 98 100 91 66 66 88 111 121 131 114 98 91 174 247
64 69 70 61 56 52 50 58 72 94 110 113 98 101 109 131 131 136 123 138 153 160
95 103 87 86 73 61 62 62 60 72 95 108 119 132 149 148 160 182 170 160 174 190
124 134 130 138 135 109 96 79 70 74 83 97 115 117 124 125 137 150 180 196 202 218
83 109 97 92 100 135 135 120 105 104 106 114 132 160 157 160 163 173 172 189 224 231
293 173 123 84 78 107 96 105 118 133 137 148 177 176 206 242 236 229 208 180 183 199
200 192 203 194 216 275 241 165 139 159 164 163 176 199 239 251 253 241 272 271 262 265
198 189 188 177 172 185 173 178 157 184 151 116 129 209 178 253 290 296 260 280 288 279
199 186 178 180 189 175 168 160 155 141 186 203 261 335 324 235 186 216 246 259 256 247
155 158 173 172 167 156 140 136 129 143 174 219 210 280 220 153 146 218 244 267 271 278
141 138 156 141 142 163 155 139 137 127 136 146 177 187 245 245 106 121 202 271 383 436

GFSNIL_con_3kmhel_093.txt.gz
Helicity
93 68 60 73 86 63 46 57 74 114 140 274 178 232 187 100 109 100 156 116 88 87
78 67 52 66 74 78 76 66 73 92 157 134 184 195 219 102 80 128 82 87 136 164
74 78 47 58 49 58 63 48 77 85 118 146 112 134 222 49 28 86 47 51 129 91
71 69 42 36 38 32 28 22 26 41 55 94 105 80 73 41 39 62 51 56 89 115
72 84 59 29 24 28 21 18 18 27 30 50 58 58 68 98 125 146 123 138 98 105
103 86 63 58 45 40 29 30 25 33 50 62 65 74 79 101 119 130 127 130 126 99
127 108 82 74 78 73 59 51 53 59 55 52 69 85 107 123 130 138 128 122 119 122
108 89 76 66 69 75 71 54 43 47 52 67 66 69 75 82 78 89 107 120 138 145
201 199 166 127 64 53 74 80 97 36 28 39 61 86 116 104 113 114 113 134 150 176
329 210 180 175 197 227 225 210 247 237 170 92 204 292 210 108 159 169 179 174 172 179
249 175 156 153 184 208 198 203 193 210 250 204 266 306 270 227 110 134 134 161 175 182
160 173 169 166 182 184 173 174 176 184 206 193 231 294 276 210 166 136 138 163 290 378
131 145 156 165 171 165 152 163 167 181 195 222 197 275 268 200 137 174 212 310 356 466
118 119 124 123 138 147 151 156 172 175 173 184 203 184 235 232 146 147 187 257 303 330

GFSNIL_con_3kmhel_096.txt.gz
Helicity
107 97 25 103 109 87 83 109 45 60 119 140 127 204 180 201 173 128 125 55 29 37
121 61 30 73 75 78 72 74 95 60 106 67 204 152 183 183 118 91 90 33 13 14
124 44 40 61 82 79 68 61 70 78 96 103 211 119 87 141 139 86 53 30 -12 -7
112 64 75 36 76 56 62 49 37 57 93 90 98 94 107 103 110 70 49 -3 67 29
116 81 89 56 74 60 41 34 33 40 81 52 54 67 51 80 77 63 14 66 100 64
111 102 89 64 58 68 47 33 18 29 43 53 76 90 86 70 48 49 43 68 82 76
132 135 115 71 86 79 65 52 38 27 21 28 40 49 56 54 57 94 105 107 118 123
176 185 160 107 100 95 85 71 47 42 38 41 48 58 41 56 65 79 92 98 110 126
439 332 303 272 279 249 210 175 120 84 54 43 196 209 178 85 71 69 64 61 63 66
441 406 294 235 215 211 212 212 237 204 203 247 249 294 267 199 88 85 84 84 83 92
410 596 471 228 213 181 179 202 219 267 231 236 266 279 237 185 104 86 97 147 190 202
389 305 352 195 212 171 196 206 223 235 270 244 265 326 284 155 136 189 253 258 309 294
191 252 141 214 159 114 114 144 164 207 229 260 226 307 328 217 178 233 249 281 298 391
96 103 88 87 126 127 138 142 150 170 186 179 207 205 276 265 189 188 217 234 222 222

GFSNIL_con_3kmhel_099.txt.gz
Helicity
129 153 152 119 173 125 139 156 164 168 111 97 61 116 140 176 191 205 248 229 207 179
124 155 144 137 149 123 100 129 139 139 143 162 136 96 158 97 110 141 147 210 122 86
142 134 152 150 121 113 90 114 132 134 107 137 146 154 64 73 65 80 118 63 35 50
165 140 146 160 125 112 83 96 117 153 128 129 143 147 181 167 119 110 121 76 74 42
190 142 163 147 107 114 104 51 85 101 108 145 113 127 136 129 92 110 119 85 80 30
175 148 165 156 125 106 88 37 37 54 65 78 86 94 89 88 73 50 74 86 28 41
177 162 165 148 122 87 62 56 29 18 36 37 41 49 52 56 57 28 7 19 -9 6
241 195 173 155 142 129 115 114 63 60 61 48 61 117 69 16 7 6 7 7 39 78
508 452 421 361 420 285 271 262 227 218 169 225 196 220 165 119 72 52 56 56 70 74
559 508 482 434 450 447 401 380 342 330 318 289 234 259 215 173 105 90 121 167 149 137
549 573 546 550 493 459 419 398 360 324 301 274 256 301 269 196 160 212 220 189 173 157
428 505 571 533 513 416 418 431 387 351 319 299 305 392 378 227 233 256 278 277 292 253
258 341 269 187 183 188 257 164 146 209 253 270 272 383 431 203 197 223 219 244 248 297
155 52 171 123 215 105 90 24 63 71 91 102 156 190 260 283 185 194 199 206 212 206

GFSNIL_con_3kmhel_102.txt.gz
Helicity
197 144 200 244 228 269 234 208 210 201 140 166 168 150 187 153 304 218 174 108 137 155
161 135 241 177 233 260 225 229 220 196 148 105 97 222 181 239 313 228 165 165 167 178
144 197 213 196 252 209 192 214 230 194 163 121 124 60 85 71 124 121 143 208 162 177
210 235 221 197 172 173 185 196 220 183 161 136 153 122 111 94 133 45 42 97 85 75
372 223 200 158 164 198 191 163 181 183 128 105 148 161 162 120 101 49 79 93 106 59
277 227 194 164 146 180 188 148 146 139 133 94 101 143 127 139 157 155 129 184 164 95
162 224 157 153 186 177 164 154 123 121 119 79 80 87 73 98 110 137 103 110 117 119
271 209 190 199 138 146 155 123 124 125 90 99 120 157 98 88 85 73 71 74 82 64
556 498 402 367 349 352 387 389 410 440 418 356 294 245 183 133 62 45 61 59 69 73
662 600 504 497 511 503 431 398 437 488 428 380 322 310 215 152 148 195 226 232 194 184
541 594 563 537 565 599 511 476 477 501 446 359 354 370 269 216 231 265 265 242 251 253
381 438 561 587 607 569 547 548 537 542 563 470 459 489 305 274 302 322 341 325 298 267
378 307 362 457 463 437 569 505 499 530 511 507 470 458 257 248 283 316 370 404 366 370
210 289 302 227 174 196 267 284 281 354 402 356 288 396 358 198 195 176 228 219 231 271

GFSNIL_con_3kmhel_105.txt.gz
Helicity
278 285 236 194 212 239 255 246 276 218 146 142 148 160 133 138 208 231 270 289 258 313
275 211 259 242 253 257 243 247 249 200 167 139 169 118 117 123 133 233 237 218 244 244
262 264 262 301 315 248 253 217 201 189 183 150 183 133 169 117 132 207 242 248 200 187
249 229 249 327 301 220 203 187 181 183 170 137 143 146 153 158 263 317 245 183 109 157
175 225 288 325 273 162 162 152 148 180 173 121 136 139 88 120 75 89 142 87 141 145
164 250 259 291 254 105 140 139 149 159 151 129 115 152 86 85 114 94 111 99 87 97
171 192 198 257 204 104 153 160 148 154 121 101 92 146 139 131 137 104 102 101 93 117
412 286 408 393 250 138 148 126 114 126 108 128 154 158 143 112 100 107 102 140 123 118
410 432 450 486 519 388 365 325 381 400 298 269 234 219 176 130 95 115 103 107 99 80
451 502 495 521 560 553 546 453 459 438 410 344 242 216 173 189 210 228 228 209 211 236
528 497 498 477 512 564 684 572 636 533 500 405 375 318 305 358 351 365 328 289 274 247
517 615 539 581 470 453 472 539 562 526 542 591 489 350 324 350 420 433 431 403 338 283
134 305 390 425 478 418 474 463 443 473 456 388 441 492 354 225 279 375 386 345 332 336
102 138 174 226 215 290 270 297 389 491 546 460 448 494 509 395 336 258 334 359 361 344

GFSNIL_con_3kmhel_111.txt.gz
Helicity
244 219 226 235 279 301 277 266 305 262 242 203 215 232 244 238 218 190 180 172 228 409
154 179 212 228 264 284 281 291 277 223 201 208 209 228 230 208 188 178 135 98 124 323
142 155 173 199 233 299 300 299 264 249 202 193 208 213 205 181 157 141 94 54 161 371
291 189 217 259 265 299 299 312 254 204 189 183 186 203 180 148 131 126 86 117 274 180
494 524 293 245 235 264 234 236 220 205 183 198 175 184 163 149 144 130 108 111 156 229
376 385 394 315 159 183 203 227 238 219 181 178 157 175 162 154 139 126 101 106 191 276
199 225 259 246 273 134 170 201 223 232 196 145 149 155 155 154 130 127 102 77 162 218
206 166 186 249 278 362 167 191 213 242 177 126 114 165 164 166 157 148 143 104 129 223
181 186 65 182 174 342 556 586 513 389 270 283 234 247 231 191 143 142 138 108 107 104
250 227 167 99 119 153 408 561 561 512 385 330 232 219 183 187 206 224 254 194 175 208
207 232 246 187 164 263 296 576 324 564 505 369 307 313 296 305 294 308 303 260 280 210
161 138 166 220 147 246 273 325 314 287 424 453 388 326 316 326 371 365 374 323 287 246
29 68 79 154 171 163 106 107 146 248 287 376 415 543 343 356 369 422 443 422 351 373
33 22 21 35 60 84 106 149 191 298 257 221 310 346 345 488 349 329 431 504 429 350

GFSNIL_con_3kmhel_114.txt.gz
Helicity
244 203 150 192 235 266 244 245 222 242 241 223 225 228 233 223 225 254 266 250 226 194
251 185 152 152 202 210 224 251 273 224 261 248 228 228 240 215 228 255 251 227 188 184
221 192 123 163 150 193 219 255 283 255 239 239 214 258 245 202 234 235 240 209 179 127
193 220 204 148 131 146 178 191 213 254 271 259 226 287 230 220 230 197 195 178 146 105
244 313 359 402 445 212 225 225 193 243 267 259 244 239 220 224 200 169 154 129 137 112
366 406 431 426 422 376 229 251 251 247 213 217 219 213 192 191 175 157 141 137 134 120
395 301 319 310 330 272 247 255 195 171 153 170 205 230 166 169 153 143 132 120 127 97
266 228 218 217 153 173 131 208 255 208 163 196 220 261 175 146 127 130 129 119 125 102
286 288 237 264 245 152 144 118 263 369 400 502 437 587 336 116 108 126 133 128 147 113
329 306 296 211 232 217 194 192 181 352 458 447 417 519 397 183 168 188 221 231 188 184
171 235 278 255 208 183 158 195 230 207 262 213 205 315 343 287 309 302 295 265 246 203
26 68 125 215 253 224 165 191 232 164 110 234 138 171 274 275 339 387 370 330 297 236
14 15 11 18 67 108 131 150 140 219 236 250 283 214 53 242 234 330 366 409 393 334
40 30 26 19 22 15 31 60 107 134 159 159 201 254 167 92 137 261 354 463 442 323

GFSNIL_con_3kmhel_117.txt.gz
Helicity
266 256 272 173 169 170 177 194 190 158 215 224 224 212 201 212 213 209 196 196 234 253
297 289 258 224 194 154 134 165 182 204 185 201 218 224 224 218 223 250 229 202 206 231
304 251 210 129 143 144 128 110 136 177 173 194 201 227 226 233 213 257 281 236 212 232
287 270 229 214 224 247 126 149 150 154 178 202 204 212 237 230 248 267 265 240 206 206
238 221 178 188 211 220 227 121 168 165 152 186 214 202 231 224 272 242 241 218 213 177
254 257 235 220 260 277 297 328 239 195 199 204 214 226 239 240 256 243 206 205 169 134
364 321 264 257 267 335 356 362 369 368 275 264 261 270 251 227 226 226 204 121 127 108
313 312 322 315 333 297 329 296 267 294 348 395 423 406 349 284 202 216 268 128 138 130
275 289 306 297 288 244 280 236 213 232 219 249 231 288 243 287 231 191 143 145 93 118
267 271 273 255 312 332 321 273 244 207 225 216 241 264 194 270 334 449 262 225 124 134
101 118 163 197 218 222 237 217 211 261 261 286 319 300 164 205 335 325 403 440 290 233
78 57 53 84 124 145 162 174 186 208 245 267 291 337 316 133 62 212 293 394 449 329
69 73 80 78 66 43 37 68 80 115 143 206 207 357 412 307 243 233 220 211 237 421
59 61 77 72 76 64 65 65 67 63 91 113 164 188 233 258 201 176 222 200 170 126

GFSNIL_con_3kmhel_120.txt.gz
Helicity
455 337 256 193 179 24 42 114 153 148 173 141 157 152 148 196 181 154 176 154 202 207
393 336 237 193 177 200 128 130 144 165 181 189 200 179 172 192 203 174 154 128 151 203
285 274 254 213 215 201 219 212 148 166 150 141 167 176 192 190 173 187 183 195 166 198
261 262 239 249 240 229 205 231 136 123 133 138 142 179 204 197 200 181 229 225 222 204
323 338 314 309 309 282 250 256 248 118 127 136 100 110 152 180 208 247 252 226 250 259
303 307 283 253 244 233 240 250 306 340 319 279 261 156 135 195 187 210 244 230 252 252
262 244 237 248 253 275 262 272 288 310 315 332 349 381 371 376 275 260 259 246 261 269
264 261 289 326 336 320 351 351 345 339 346 366 363 394 358 299 263 279 255 246 248 261
285 288 283 317 308 270 287 324 314 340 332 334 277 392 324 182 216 245 285 225 230 198
189 221 208 192 222 274 243 259 263 282 258 251 279 340 331 312 198 222 273 326 329 386
99 94 109 157 212 232 217 198 208 224 252 248 295 346 316 283 249 268 272 327 341 369
74 67 72 61 60 60 96 123 154 160 200 218 250 336 338 251 238 300 330 322 357 331
70 73 71 68 59 49 29 32 30 60 82 155 172 281 284 205 128 136 168 264 313 325
65 62 60 50 52 55 51 49 57 56 65 86 96 102 159 180 114 110 126 131 182 253

GFSNIL_con_3kmhel_123.txt.gz
Helicity
526 251 378 585 158 288 130 123 77 78 102 137 149 164 179 186 178 162 157 130 119 128
593 552 404 595 474 148 177 155 35 53 80 129 158 165 190 190 150 73 120 111 88 92
588 589 926 465 153 137 142 172 184 40 25 116 164 187 206 231 202 224 204 156 118 87
284 446 593 504 427 110 57 151 239 230 83 101 157 198 218 205 221 241 262 173 85 145
326 330 341 230 303 250 237 248 289 318 329 276 225 198 211 175 175 169 179 200 239 161
355 308 265 237 264 301 283 310 341 408 397 372 381 350 362 353 265 174 201 194 270 213
212 249 268 221 274 308 299 321 334 337 350 367 362 336 295 297 299 254 268 192 220 218
211 197 244 247 231 255 243 252 283 292 301 305 277 283 291 261 233 253 261 279 216 214
254 213 255 272 266 284 284 284 276 321 313 352 308 404 334 267 236 257 288 295 298 335
250 230 213 199 205 229 247 257 237 271 241 241 286 372 337 244 158 164 214 263 233 302
92 84 72 81 125 164 178 197 187 172 157 168 235 330 321 232 186 176 200 185 231 294
57 54 65 84 87 70 69 75 83 109 142 151 189 291 306 198 185 187 186 211 248 327
28 54 69 59 51 36 36 39 32 38 53 90 90 146 159 127 94 139 139 152 179 257
29 36 36 37 35 43 31 36 50 48 31 55 68 96 148 142 63 61 50 77 113 107

GFSNIL_con_3kmhel_126.txt.gz
Helicity
-59 -147 -31 486 300 714 562 395 229 167 168 175 157 150 138 149 169 175 166 166 146 151
103 178 352 122 217 1043 856 673 450 221 140 115 131 148 161 166 176 199 217 172 145 171
311 236 332 258 496 354 622 517 399 352 205 107 121 132 137 159 183 196 181 155 201 130
489 401 295 251 633 337 185 431 283 219 262 240 213 156 108 148 185 182 205 199 194 194
591 533 529 549 597 621 602 547 94 160 225 232 228 241 250 301 293 232 237 194 169 202
552 572 472 427 384 456 498 585 176 209 176 169 225 254 266 250 325 342 384 263 186 146
356 503 495 404 430 425 423 346 272 223 186 253 291 335 407 348 311 310 302 297 288 306
255 261 343 469 412 351 351 350 351 359 315 246 254 329 359 269 240 250 255 248 280 299
160 196 222 224 206 265 284 321 269 247 257 298 311 349 306 222 191 210 246 273 306 281
87 40 73 100 164 215 233 209 229 244 222 257 301 361 254 216 153 158 178 196 227 219
66 79 72 65 81 89 82 114 161 210 239 244 309 343 364 248 190 149 144 185 211 216
14 17 14 46 47 43 55 63 58 73 92 94 135 207 207 135 119 159 167 170 181 197
-23 2 27 40 52 33 17 30 20 20 33 91 96 163 162 120 77 86 74 68 95 173
-44 -39 -35 -16 17 41 33 37 59 55 49 56 86 108 156 153 77 68 54 55 70 65

GFSNIL_con_3kmhel_129.txt.gz
Helicity
140 11 -47 -84 -160 -196 -302 -350 107 332 343 283 274 305 269 243 208 188 171 150 168 147
212 137 70 6 -42 -53 -220 -112 185 425 359 269 289 317 273 225 202 184 168 145 145 169
220 250 274 255 238 216 -103 -69 405 995 613 347 278 210 210 198 174 160 154 151 140 137
269 401 455 373 326 329 99 99 106 469 687 733 562 588 462 344 223 162 153 140 138 139
413 502 535 507 414 380 556 576 109 260 337 391 602 496 344 266 267 293 373 249 158 144
482 534 561 630 472 593 599 668 703 80 238 305 163 456 344 256 199 175 215 229 279 349
448 306 289 434 569 531 329 603 719 725 269 170 210 232 240 211 198 187 233 281 280 311
267 322 255 275 373 372 453 412 379 393 537 476 329 276 223 183 208 188 218 294 315 260
215 265 288 238 207 285 323 348 301 411 399 399 413 361 332 294 270 231 236 289 286 261
85 116 135 219 247 172 133 108 159 139 177 211 213 281 243 189 127 153 201 248 264 262
41 51 69 69 89 110 89 94 100 153 182 215 292 331 305 256 193 202 201 205 232 223
34 37 34 59 59 57 30 31 46 63 88 107 145 190 183 126 88 94 99 104 125 139
-41 -7 48 54 33 15 20 29 24 19 50 95 98 162 158 119 81 91 91 91 88 134
-38 -37 -23 4 47 58 52 51 53 43 53 85 114 126 164 164 98 90 71 76 93 89

GFSNIL_con_3kmhel_132.txt.gz
Helicity
162 82 46 34 66 10 -27 -67 -211 -183 -210 97 68 199 249 261 260 271 240 199 217 208
131 170 120 101 83 54 13 -29 -116 -287 -311 8 127 177 252 204 207 287 222 178 157 166
108 180 209 136 173 169 172 150 41 -72 -41 -41 57 306 289 269 248 225 229 220 191 176
164 187 215 242 326 331 397 407 268 24 125 234 574 458 415 324 250 193 190 194 193 163
273 194 291 319 470 539 613 596 461 303 -58 382 593 679 713 603 510 434 481 477 463 418
474 585 592 522 398 556 525 594 622 524 540 203 165 823 688 652 645 602 594 564 519 361
326 380 683 644 566 598 549 468 463 511 566 631 456 90 342 387 376 673 541 457 320 416
235 289 382 463 495 383 339 344 435 492 554 685 660 551 166 224 270 183 245 256 291 294
-31 -8 167 230 281 290 235 177 321 271 211 423 515 592 444 157 209 223 191 202 173 150
99 91 115 138 162 255 330 284 253 222 231 176 172 225 244 221 180 210 222 210 254 212
90 91 93 76 74 49 28 81 127 139 133 154 133 130 109 76 60 103 162 194 217 234
18 36 43 42 16 -6 -13 24 34 5 20 71 115 143 131 67 49 52 66 79 101 110
-30 -31 -24 -10 2 -18 -31 -12 15 68 101 112 112 149 141 93 58 70 63 69 73 119
-43 -41 -45 -39 -30 -28 -33 -32 -17 -23 20 44 53 73 118 136 84 57 51 59 57 69

GFSNIL_con_3kmhel_135.txt.gz
Helicity
20 36 65 69 92 116 104 123 180 117 29 -10 -35 36 108 -85 79 200 255 262 257 263
-13 18 59 113 69 80 76 96 123 170 84 43 -23 44 30 -20 -72 182 202 253 251 250
78 131 126 105 106 100 113 153 138 184 195 147 97 58 50 68 52 165 207 250 268 243
146 233 266 214 187 201 171 211 195 182 206 218 313 303 134 -47 182 63 133 213 259 263
197 308 368 378 347 405 387 285 346 361 332 344 375 461 686 685 565 483 282 398 361 365
146 187 414 527 523 540 524 438 444 498 498 467 380 379 412 716 991 927 593 727 601 513
189 166 263 373 634 934 811 767 683 552 542 547 482 357 349 296 261 397 491 654 606 606
100 166 142 193 349 631 743 856 823 562 556 456 436 419 363 252 314 221 339 491 434 458
-10 -41 -2 52 127 253 252 348 499 514 441 415 388 353 317 377 563 531 262 218 213 244
-16 -19 -16 1 86 122 163 173 253 329 295 276 225 213 213 170 205 290 194 188 181 152
-18 -11 -23 -7 3 33 90 150 157 177 144 128 180 156 109 173 159 117 114 104 121 129
18 21 43 54 25 21 30 59 77 51 92 90 75 106 128 83 49 57 71 100 99 90
-9 -6 2 -2 -7 -18 -39 -37 -34 -4 18 65 74 99 101 70 22 48 43 47 72 141
-15 -27 -47 -64 -52 -51 -40 -30 -41 -48 -20 19 72 105 143 149 69 36 28 30 43 64

GFSNIL_con_3kmhel_138.txt.gz
Helicity
31 39 32 65 56 47 47 35 183 203 251 297 238 152 98 77 136 152 203 58 148 229
16 77 84 70 39 50 1 4 158 165 203 210 198 171 126 103 98 144 211 91 129 152
19 7 121 76 78 112 98 108 205 126 121 172 149 123 82 99 83 166 140 335 103 134
73 66 40 96 181 221 152 170 129 70 69 97 134 163 133 127 84 85 270 406 51 73
-0 49 36 146 215 404 341 368 270 228 204 167 84 120 263 327 484 440 416 436 342 326
-61 -21 9 128 226 352 511 446 449 430 386 375 340 330 356 407 490 507 523 558 616 473
-61 -33 -32 11 162 376 432 817 717 711 610 564 493 540 563 630 641 579 470 384 402 490
-15 -36 19 50 107 125 355 348 537 685 767 645 681 465 409 412 577 618 620 576 465 425
21 44 65 74 123 88 117 177 217 239 387 563 532 406 370 300 357 284 248 303 416 461
25 15 2 1 19 36 51 85 124 119 125 262 464 310 241 186 216 312 358 294 259 324
-6 -12 4 12 37 39 30 49 58 161 150 130 159 232 181 161 129 133 145 153 174 158
-8 -14 -20 -0 14 -10 -16 -4 14 35 93 125 130 129 148 138 110 100 127 148 156 161
-33 -28 -20 -32 -33 -32 -36 -31 -17 22 45 74 63 87 78 52 9 17 32 69 100 143
-50 -60 -66 -70 -75 -68 -48 -2 17 -11 9 49 61 52 55 43 -20 -42 -44 -13 16 50